| time (UTC) | temp F | wind direction | speed knots | gust knots | rain 1hr in | rain 24hr in | rain mn in | humidity % | barometer mb |
| 20260505041440 | 46 | 228 | 0.0 | 1.7 | 0.03 | 0.13 | 0.13 | 98 | 1011.5 |
| 20260505041103 | 46 | 214 | 0.0 | 1.7 | 0.03 | 0.13 | 0.13 | 98 | 1011.5 |
| 20260505041007 | 46 | 208 | 0.0 | 1.7 | 0.03 | 0.13 | 0.13 | 98 | 1011.5 |
| 20260505040201 | 47 | 191 | 0.0 | 0.0 | 0.05 | 0.13 | 0.13 | 98 | 1011.5 |
| 20260505035852 | 47 | 211 | 0.0 | 0.0 | 0.07 | 0.13 | 0.13 | 97 | 1011.5 |
| 20260505035515 | 47 | 201 | 0.0 | 0.0 | 0.08 | 0.13 | 0.13 | 98 | 1011.5 |
| 20260505034924 | 47 | 198 | 0.0 | 0.0 | 0.09 | 0.12 | 0.12 | 98 | 1011.5 |
| 20260505034731 | 47 | 193 | 0.0 | 0.0 | 0.09 | 0.12 | 0.12 | 97 | 1011.5 |
| 20260505034400 | 47 | 191 | 0.0 | 0.0 | 0.10 | 0.12 | 0.12 | 97 | 1011.5 |
| 20260505033849 | 47 | 202 | 0.0 | 0.0 | 0.10 | 0.12 | 0.12 | 97 | 1011.5 |
| 20260505033631 | 47 | 191 | 0.0 | 0.0 | 0.10 | 0.12 | 0.12 | 97 | 1011.5 |
| 20260505033312 | 47 | 198 | 0.0 | 0.0 | 0.12 | 0.12 | 0.12 | 97 | 1011.5 |
| 20260505033250 | 47 | 221 | 0.0 | 0.0 | 0.12 | 0.12 | 0.12 | 97 | 1011.5 |
| 20260505032601 | 47 | 283 | 0.0 | 0.0 | 0.12 | 0.12 | 0.12 | 96 | 1011.5 |
| 20260505032108 | 48 | 233 | 0.0 | 0.0 | 0.11 | 0.11 | 0.11 | 96 | 1011.5 |
| 20260505031513 | 48 | 192 | 0.0 | 1.7 | 0.10 | 0.10 | 0.10 | 95 | 1011.5 |
| 20260505030910 | 48 | 211 | 0.0 | 1.7 | 0.10 | 0.10 | 0.10 | 95 | 1011.5 |
| 20260505030806 | 49 | 273 | 0.0 | 1.7 | 0.08 | 0.08 | 0.08 | 94 | 1011.5 |
| 20260505030408 | 49 | 273 | 0.0 | 1.7 | 0.08 | 0.08 | 0.08 | 94 | 1011.5 |
| 20260505025902 | 49 | 203 | 0.0 | 1.7 | 0.05 | 0.05 | 0.05 | 91 | 1011.0 |
| 20260505025149 | 49 | 222 | 0.9 | 1.7 | 0.03 | 0.03 | 0.03 | 89 | 1011.0 |
| 20260505024951 | 49 | 324 | 1.7 | 1.7 | 0.03 | 0.03 | 0.03 | 89 | 1010.7 |
| 20260505024316 | 50 | 206 | 0.0 | 0.0 | 0.02 | 0.02 | 0.02 | 86 | 1010.7 |
| 20260505023957 | 50 | 230 | 0.0 | 0.0 | 0.02 | 0.02 | 0.02 | 84 | 1011.0 |
| 20260505023630 | 50 | 240 | 0.0 | 0.0 | 0.00 | 0.00 | 0.00 | 83 | 1010.7 |
| 20260505022947 | 50 | 278 | 0.0 | 0.0 | 0.00 | 0.00 | 0.00 | 81 | 1010.2 |
| 20260505022438 | 50 | 211 | 0.0 | 0.0 | 0.00 | 0.00 | 0.00 | 80 | 1010.7 |
| 20260505021925 | 50 | 198 | 0.0 | 0.0 | 0.00 | 0.00 | 0.00 | 80 | 1010.2 |
| 20260505021400 | 50 | 219 | 0.0 | 1.7 | 0.00 | 0.00 | 0.00 | 77 | 1010.2 |
| 20260505020904 | 51 | 244 | 0.0 | 1.7 | 0.00 | 0.00 | 0.00 | 76 | 1010.2 |
| 20260505020716 | 51 | 270 | 0.9 | 1.7 | 0.00 | 0.00 | 0.00 | 76 | 1010.2 |
| 20260505020234 | 51 | 211 | 0.0 | 1.7 | 0.00 | 0.00 | 0.00 | 77 | 1010.7 |
| 20260505015816 | 51 | 289 | 0.0 | 1.7 | 0.00 | 0.00 | 0.00 | 76 | 1010.2 |
| 20260505015444 | 51 | 214 | 0.0 | 1.7 | 0.00 | 0.00 | 0.00 | 75 | 1010.7 |
| 20260505014838 | 52 | 229 | 0.0 | 1.7 | 0.00 | 0.00 | 0.00 | 73 | 1010.7 |
| 20260505014701 | 52 | 271 | 0.9 | 1.7 | 0.00 | 0.00 | 0.00 | 73 | 1010.7 |
| 20260505014247 | 53 | 227 | 0.0 | 1.7 | 0.00 | 0.00 | 0.00 | 73 | 1010.2 |
| 20260505013747 | 53 | 317 | 0.0 | 4.3 | 0.00 | 0.00 | 0.00 | 71 | 1010.2 |
| 20260505013452 | 54 | 217 | 1.7 | 4.3 | 0.00 | 0.00 | 0.00 | 70 | 1010.2 |
| 20260505013115 | 55 | 301 | 2.6 | 4.3 | 0.00 | 0.00 | 0.00 | 71 | 1010.2 |
| 20260505012551 | 55 | 267 | 0.0 | 4.3 | 0.00 | 0.00 | 0.00 | 70 | 1010.2 |
| 20260505012348 | 56 | 225 | 0.0 | 4.3 | 0.00 | 0.00 | 0.00 | 68 | 1010.2 |
| 20260505012259 | 56 | 280 | 1.7 | 4.3 | 0.00 | 0.00 | 0.00 | 66 | 1010.2 |
| 20260505011409 | 57 | 248 | 2.6 | 4.3 | 0.00 | 0.00 | 0.00 | 61 | 1009.8 |
| 20260505011231 | 57 | 248 | 2.6 | 4.3 | 0.00 | 0.00 | 0.00 | 61 | 1010.2 |
| 20260505011053 | 57 | 73 | 0.9 | 1.7 | 0.00 | 0.00 | 0.00 | 59 | 1010.2 |
| 20260505010150 | 57 | 182 | 0.0 | 0.0 | 0.00 | 0.00 | 0.00 | 57 | 1009.8 |
| 20260505005516 | 57 | 218 | 0.0 | 0.0 | 0.00 | 0.00 | 0.00 | 56 | 1009.5 |
| 20260505005023 | 58 | 217 | 0.0 | 1.7 | 0.00 | 0.00 | 0.00 | 56 | 1009.5 |
| 20260505004847 | 58 | 213 | 0.0 | 1.7 | 0.00 | 0.00 | 0.00 | 57 | 1009.5 |
| 20260505004325 | 58 | 262 | 0.0 | 1.7 | 0.00 | 0.00 | 0.00 | 56 | 1009.5 |
| 20260505003904 | 58 | 251 | 0.0 | 1.7 | 0.00 | 0.00 | 0.00 | 55 | 1009.8 |
| 20260505003716 | 58 | 163 | 0.0 | 1.7 | 0.00 | 0.00 | 0.00 | 55 | 1009.5 |
| 20260505003152 | 58 | 203 | 0.0 | 1.7 | 0.00 | 0.00 | 0.00 | 54 | 1009.5 |
| 20260505002802 | 59 | 218 | 0.0 | 1.7 | 0.00 | 0.00 | 0.00 | 54 | 1009.8 |
| 20260505002456 | 59 | 229 | 0.0 | 1.7 | 0.00 | 0.00 | 0.00 | 54 | 1009.5 |
| 20260505001943 | 59 | 239 | 0.9 | 1.7 | 0.00 | 0.00 | 0.00 | 55 | 1009.5 |
| 20260505001632 | 59 | 299 | 1.7 | 1.7 | 0.00 | 0.00 | 0.00 | 54 | 1009.5 |
| 20260505001528 | 59 | 174 | 0.0 | 1.7 | 0.00 | 0.00 | 0.00 | 53 | 1009.5 |
| 20260505000657 | 59 | 298 | 0.0 | 1.7 | 0.00 | 0.00 | 0.00 | 52 | 1009.5 |
| 20260505000531 | 59 | 350 | 0.9 | 1.7 | 0.00 | 0.00 | 0.00 | 51 | 1009.5 |
| 20260505000049 | 60 | 275 | 0.9 | 1.7 | 0.00 | 0.00 | 0.00 | 51 | 1009.5 |
| 20260504235540 | 60 | 189 | 0.0 | 1.7 | 0.00 | 0.00 | 0.00 | 53 | 1009.5 |
| 20260504235404 | 60 | 224 | 0.0 | 1.7 | 0.00 | 0.00 | 0.00 | 53 | 1009.0 |
| 20260504234930 | 60 | 235 | 0.0 | 4.3 | 0.00 | 0.00 | 0.00 | 52 | 1009.5 |
| 20260504234702 | 60 | 331 | 1.7 | 4.3 | 0.00 | 0.00 | 0.00 | 51 | 1009.5 |
| 20260504234249 | 60 | 304 | 2.6 | 4.3 | 0.00 | 0.00 | 0.00 | 51 | 1009.5 |
| 20260504234101 | 60 | 209 | 0.0 | 1.7 | 0.00 | 0.00 | 0.00 | 49 | 1009.5 |
| 20260504233307 | 60 | 220 | 0.0 | 1.7 | 0.00 | 0.00 | 0.00 | 47 | 1009.0 |
| 20260504233131 | 60 | 226 | 0.0 | 1.7 | 0.00 | 0.00 | 0.00 | 47 | 1009.0 |
| 20260504232704 | 60 | 227 | 0.0 | 0.0 | 0.00 | 0.00 | 0.00 | 47 | 1009.0 |
| 20260504232114 | 60 | 256 | 0.0 | 1.7 | 0.00 | 0.00 | 0.00 | 48 | 1009.0 |
| 20260504231549 | 60 | 296 | 0.9 | 1.7 | 0.00 | 0.00 | 0.00 | 48 | 1009.0 |
| 20260504231025 | 60 | 156 | 0.0 | 1.7 | 0.00 | 0.00 | 0.00 | 49 | 1009.5 |
| 20260504230345 | 60 | 158 | 0.0 | 4.3 | 0.00 | 0.00 | 0.00 | 49 | 1009.0 |
| 20260504230012 | 60 | 337 | 1.7 | 4.3 | 0.00 | 0.00 | 0.00 | 51 | 1009.5 |
| 20260504225815 | 60 | 229 | 0.0 | 4.3 | 0.00 | 0.00 | 0.00 | 52 | 1009.0 |
| 20260504225306 | 61 | 212 | 0.0 | 4.3 | 0.00 | 0.00 | 0.00 | 51 | 1009.5 |
| 20260504224943 | 61 | 72 | 1.7 | 4.3 | 0.00 | 0.00 | 0.00 | 50 | 1009.5 |
| 20260504224744 | 61 | 267 | 1.7 | 8.7 | 0.00 | 0.00 | 0.00 | 50 | 1009.5 |
| 20260504224123 | 61 | 178 | 4.3 | 8.7 | 0.00 | 0.00 | 0.00 | 46 | 1009.8 |
| 20260504223801 | 61 | 255 | 0.0 | 1.7 | 0.00 | 0.00 | 0.00 | 45 | 1009.5 |
| 20260504223437 | 61 | 306 | 0.9 | 1.7 | 0.00 | 0.00 | 0.00 | 45 | 1009.5 |
| 20260504222900 | 61 | 213 | 0.9 | 1.7 | 0.00 | 0.00 | 0.00 | 43 | 1009.5 |
| 20260504222631 | 61 | 207 | 0.0 | 0.0 | 0.00 | 0.00 | 0.00 | 42 | 1009.5 |
| 20260504222309 | 62 | 214 | 0.0 | 0.0 | 0.00 | 0.00 | 0.00 | 43 | 1009.5 |
| 20260504221637 | 62 | 329 | 0.0 | 0.0 | 0.00 | 0.00 | 0.00 | 43 | 1009.0 |
| 20260504221505 | 62 | 222 | 0.0 | 1.7 | 0.00 | 0.00 | 0.00 | 43 | 1009.0 |
| 20260504221030 | 62 | 331 | 0.0 | 7.0 | 0.00 | 0.00 | 0.00 | 44 | 1009.0 |
| 20260504220946 | 62 | 309 | 2.6 | 7.0 | 0.00 | 0.00 | 0.00 | 43 | 1008.2 |
| 20260504220548 | 62 | 309 | 2.6 | 7.0 | 0.00 | 0.00 | 0.00 | 43 | 1008.2 |
| 20260504220303 | 63 | 186 | 0.9 | 4.3 | 0.00 | 0.00 | 0.00 | 42 | 1007.8 |
| 20260504215301 | 63 | 166 | 0.0 | 7.0 | 0.00 | 0.00 | 0.00 | 43 | 1007.8 |
| 20260504214730 | 64 | 195 | 0.9 | 7.0 | 0.00 | 0.00 | 0.00 | 42 | 1008.2 |
| 20260504214213 | 65 | 346 | 2.6 | 7.0 | 0.00 | 0.00 | 0.00 | 42 | 1008.2 |
| 20260504214051 | 65 | 122 | 4.3 | 8.7 | 0.00 | 0.00 | 0.00 | 41 | 1008.2 |
| 20260504213501 | 65 | 21 | 4.3 | 8.7 | 0.00 | 0.00 | 0.00 | 39 | 1007.8 |
| 20260504213125 | 65 | 283 | 5.2 | 7.0 | 0.00 | 0.00 | 0.00 | 39 | 1007.8 |
| 20260504212931 | 66 | 285 | 3.5 | 7.0 | 0.00 | 0.00 | 0.00 | 38 | 1008.2 |
| 20260504212252 | 66 | 277 | 4.3 | 8.7 | 0.00 | 0.00 | 0.00 | 36 | 1007.8 |
| 20260504212051 | 66 | 81 | 7.0 | 13.0 | 0.00 | 0.00 | 0.00 | 35 | 1008.2 |
| 20260504211646 | 66 | 306 | 5.2 | 13.0 | 0.00 | 0.00 | 0.00 | 35 | 1008.2 |
| 20260504211110 | 67 | 163 | 1.7 | 11.3 | 0.00 | 0.00 | 0.00 | 39 | 1008.2 |
| 20260504210922 | 67 | 68 | 7.8 | 11.3 | 0.00 | 0.00 | 0.00 | 37 | 1008.2 |
| 20260504210546 | 68 | 190 | 1.7 | 4.3 | 0.00 | 0.00 | 0.00 | 36 | 1008.2 |
| 20260504205901 | 69 | 11 | 1.7 | 8.7 | 0.00 | 0.00 | 0.00 | 33 | 1008.2 |
| 20260504205309 | 70 | 104 | 0.9 | 4.3 | 0.00 | 0.00 | 0.00 | 32 | 1007.8 |
| 20260504204707 | 70 | 124 | 3.5 | 11.3 | 0.00 | 0.00 | 0.00 | 30 | 1007.8 |
| 20260504204030 | 70 | 175 | 0.9 | 11.3 | 0.00 | 0.00 | 0.00 | 30 | 1007.8 |
| 20260504203658 | 69 | 270 | 2.6 | 11.3 | 0.00 | 0.00 | 0.00 | 30 | 1007.8 |
| 20260504203526 | 69 | 93 | 8.7 | 11.3 | 0.00 | 0.00 | 0.00 | 29 | 1007.8 |
| 20260504202851 | 68 | 154 | 1.7 | 7.0 | 0.00 | 0.00 | 0.00 | 31 | 1007.8 |
| 20260504202650 | 67 | 188 | 1.7 | 7.0 | 0.00 | 0.00 | 0.00 | 31 | 1007.8 |
| 20260504202230 | 67 | 256 | 4.3 | 7.0 | 0.00 | 0.00 | 0.00 | 30 | 1007.8 |
| 20260504201730 | 66 | 302 | 1.7 | 4.3 | 0.00 | 0.00 | 0.00 | 32 | 1007.8 |
| 20260504201532 | 66 | 192 | 0.0 | 4.3 | 0.00 | 0.00 | 0.00 | 33 | 1007.8 |
| 20260504201038 | 67 | 202 | 2.6 | 4.3 | 0.00 | 0.00 | 0.00 | 36 | 1007.8 |
| 20260504200516 | 68 | 178 | 1.7 | 1.7 | 0.00 | 0.00 | 0.00 | 35 | 1008.2 |
| 20260504200003 | 69 | 166 | 0.0 | 1.7 | 0.00 | 0.00 | 0.00 | 34 | 1008.2 |
| 20260504195444 | 71 | 214 | 0.0 | 4.3 | 0.00 | 0.00 | 0.00 | 34 | 1008.2 |
| 20260504194743 | 73 | 258 | 1.7 | 7.0 | 0.00 | 0.00 | 0.00 | 30 | 1008.2 |
| 20260504194432 | 74 | 210 | 0.9 | 7.0 | 0.00 | 0.00 | 0.00 | 29 | 1008.2 |
| 20260504194125 | 75 | 218 | 0.9 | 7.0 | 0.00 | 0.00 | 0.00 | 26 | 1008.2 |
| 20260504193612 | 75 | 195 | 5.2 | 7.0 | 0.00 | 0.00 | 0.00 | 24 | 1008.2 |
| 20260504193250 | 75 | 194 | 0.0 | 4.3 | 0.00 | 0.00 | 0.00 | 23 | 1007.8 |
| 20260504192955 | 76 | 302 | 1.7 | 4.3 | 0.00 | 0.00 | 0.00 | 22 | 1007.5 |
| 20260504192330 | 75 | 243 | 0.0 | 4.3 | 0.00 | 0.00 | 0.00 | 22 | 1007.8 |
| 20260504192153 | 75 | 268 | 1.7 | 7.0 | 0.00 | 0.00 | 0.00 | 21 | 1007.0 |
| 20260504192149 | 75 | 195 | 0.9 | 4.3 | 0.00 | 0.00 | 0.00 | 22 | 1007.5 |
| 20260504191144 | 74 | 334 | 2.6 | 7.0 | 0.00 | 0.00 | 0.00 | 23 | 1007.5 |
| 20260504191007 | 74 | 340 | 2.6 | 7.0 | 0.00 | 0.00 | 0.00 | 22 | 1007.5 |
| 20260504190530 | 74 | 327 | 1.7 | 4.3 | 0.00 | 0.00 | 0.00 | 22 | 1007.0 |
| 20260504185852 | 75 | 325 | 2.6 | 4.3 | 0.00 | 0.00 | 0.00 | 24 | 1007.5 |
| 20260504185506 | 75 | 239 | 1.7 | 4.3 | 0.00 | 0.00 | 0.00 | 23 | 1007.5 |
| 20260504184729 | 75 | 169 | 2.6 | 4.3 | 0.00 | 0.00 | 0.00 | 23 | 1007.5 |
| 20260504184051 | 75 | 291 | 1.7 | 4.3 | 0.00 | 0.00 | 0.00 | 24 | 1007.5 |
| 20260504183716 | 76 | 260 | 1.7 | 4.3 | 0.00 | 0.00 | 0.00 | 24 | 1007.5 |
| 20260504183407 | 76 | 160 | 0.0 | 7.0 | 0.00 | 0.00 | 0.00 | 23 | 1007.8 |
| 20260504182748 | 76 | 153 | 5.2 | 7.0 | 0.00 | 0.00 | 0.00 | 24 | 1007.5 |
| 20260504182601 | 76 | 226 | 1.7 | 4.3 | 0.00 | 0.00 | 0.00 | 24 | 1007.8 |
| 20260504182239 | 76 | 267 | 1.7 | 4.3 | 0.00 | 0.00 | 0.00 | 24 | 1007.8 |
| 20260504181700 | 75 | 196 | 0.9 | 7.0 | 0.00 | 0.00 | 0.00 | 24 | 1007.8 |
| 20260504181513 | 75 | 287 | 1.7 | 7.0 | 0.00 | 0.00 | 0.00 | 23 | 1007.8 |
| 20260504181401 | 74 | 198 | 2.6 | 7.0 | 0.00 | 0.00 | 0.00 | 24 | 1007.8 |
| 20260504180440 | 73 | 101 | 0.0 | 7.0 | 0.00 | 0.00 | 0.00 | 25 | 1008.2 |
| 20260504175831 | 73 | 53 | 2.6 | 7.0 | 0.00 | 0.00 | 0.00 | 25 | 1008.2 |
| 20260504175331 | 72 | 301 | 4.3 | 4.3 | 0.00 | 0.00 | 0.00 | 26 | 1008.2 |
| 20260504175148 | 72 | 19 | 1.7 | 4.3 | 0.00 | 0.00 | 0.00 | 26 | 1007.8 |
| 20260504174503 | 72 | 170 | 0.0 | 1.7 | 0.00 | 0.00 | 0.00 | 27 | 1008.2 |
| 20260504174238 | 71 | 191 | 0.0 | 7.0 | 0.00 | 0.00 | 0.00 | 27 | 1008.2 |
| 20260504174144 | 71 | 20 | 0.9 | 7.0 | 0.00 | 0.00 | 0.00 | 27 | 1008.7 |
| 20260504173332 | 71 | 351 | 1.7 | 4.3 | 0.00 | 0.00 | 0.00 | 27 | 1008.7 |
| 20260504173152 | 71 | 178 | 4.3 | 4.3 | 0.00 | 0.00 | 0.00 | 28 | 1008.7 |
| 20260504172703 | 71 | 298 | 1.7 | 4.3 | 0.00 | 0.00 | 0.00 | 28 | 1008.7 |
| 20260504172141 | 71 | 180 | 0.9 | 4.3 | 0.00 | 0.00 | 0.00 | 27 | 1008.7 |
| 20260504171615 | 70 | 291 | 0.0 | 4.3 | 0.00 | 0.00 | 0.00 | 29 | 1008.7 |
| 20260504171042 | 70 | 280 | 1.7 | 4.3 | 0.00 | 0.00 | 0.00 | 28 | 1008.7 |
| 20260504170443 | 69 | 217 | 1.7 | 4.3 | 0.00 | 0.00 | 0.00 | 28 | 1008.7 |
| 20260504160349 | 63 | 226 | 0.0 | 1.7 | 0.00 | 0.00 | 0.00 | 34 | 1009.5 |
| 20260504160150 | 62 | 105 | 0.0 | 1.7 | 0.00 | 0.00 | 0.00 | 34 | 1009.5 |
| 20260504151016 | 60 | 202 | 0.0 | 1.7 | 0.00 | 0.00 | 0.00 | 35 | 1009.5 |
| 20260504150515 | 60 | 201 | 0.0 | 0.0 | 0.00 | 0.00 | 0.00 | 36 | 1009.5 |
| 20260504140930 | 57 | 190 | 0.0 | 0.0 | 0.00 | 0.00 | 0.00 | 37 | 1009.5 |
| 20260504140551 | 57 | 194 | 0.0 | 0.0 | 0.00 | 0.00 | 0.00 | 37 | 1009.5 |
| 20260504140354 | 57 | 301 | 0.0 | 0.0 | 0.00 | 0.00 | 0.00 | 36 | 1009.5 |
| 20260504130525 | 48 | 207 | 0.0 | 0.0 | 0.00 | 0.00 | 0.00 | 42 | 1009.0 |
| 20260504110430 | 44 | 213 | 0.0 | 0.0 | 0.00 | 0.00 | 0.00 | 53 | 1009.5 |
| 20260504100531 | 44 | 208 | 0.0 | 0.0 | 0.00 | 0.00 | 0.00 | 53 | 1009.8 |
| 20260504081549 | 46 | 198 | 0.0 | 0.0 | 0.00 | 0.00 | 0.00 | 53 | 1010.2 |
| 20260504081401 | 46 | 198 | 0.0 | 0.0 | 0.00 | 0.00 | 0.00 | 53 | 1010.2 |
| 20260504080903 | 46 | 198 | 0.0 | 0.0 | 0.00 | 0.00 | 0.00 | 53 | 1010.2 |
| 20260504080231 | 47 | 198 | 0.0 | 0.0 | 0.00 | 0.00 | 0.00 | 52 | 1010.7 |
| 20260504070348 | 51 | 192 | 0.0 | 0.0 | 0.00 | 0.00 | 0.00 | 46 | 1011.0 |
| 20260504050431 | 59 | 199 | 1.7 | 1.7 | 0.00 | 0.00 | 0.00 | 33 | 1011.0 |
| 20260504045734 | 60 | 206 | 0.0 | 1.7 | 0.00 | 0.00 | 0.00 | 32 | 1011.0 |